Location: Newark
(46.7000°N, 60.6000°W)
Time: 23:43:42
(UTC+00:00)

Vanguard 3 - Pass Details

Date: 30 October 2020
Orbit: 508 x 3262 km, 33.3° (Epoch: 29 November)

Event Time Altitude Azimuth Distance (km) Brightness Sun altitude
Rises 13:00:48 0° 269° (W) 7,030 11.5 18.9°
Reaches altitude 10° 13:05:38 10° 264° (W) 6,142 11.3 19.4°
Maximum altitude 13:23:47 46° 200° (SSW) 3,763 11.2 21.4°
Drops below altitude 10° 13:38:23 10° 134° (SE) 5,008 13.0 22.8°
Sets 13:41:52 0° 128° (SE) 5,691 12.7 23.2°
